Time,TemperatureF,DewpointF,PressureIn,WindDirection,WindDirectionDegrees,WindSpeedMPH,WindSpeedGustMPH,Humidity,HourlyPrecipIn,Conditions,Clouds,dailyrainin,SoftwareType,DateUTC
2013-07-06 00:01:00,74.0,47.0,-100.00,NW,304,6.0,8.0,39,-99.99,,,-99.99,,2013-07-06 07:01:00,
2013-07-06 00:12:00,74.0,48.0,-100.00,NW,309,6.0,8.0,40,-99.99,,,-99.99,,2013-07-06 07:12:00,
2013-07-06 00:22:00,74.0,48.0,-100.00,NW,309,6.0,8.0,40,-99.99,,,-99.99,,2013-07-06 07:22:00,
2013-07-06 01:21:00,74.0,47.0,-100.00,NW,309,5.0,6.0,39,-99.99,,,-99.99,,2013-07-06 08:21:00,
2013-07-06 01:43:00,74.0,47.0,-100.00,NW,316,5.0,7.0,39,-99.99,,,-99.99,,2013-07-06 08:43:00,
2013-07-06 02:22:00,74.0,47.0,-100.00,NW,310,5.0,6.0,39,-99.99,,,-99.99,,2013-07-06 09:22:00,
2013-07-06 03:11:00,73.0,45.0,-100.00,NW,314,6.0,7.0,37,-99.99,,,-99.99,,2013-07-06 10:11:00,
2013-07-06 03:22:00,73.0,46.0,-100.00,NW,307,6.0,7.0,38,-99.99,,,-99.99,,2013-07-06 10:22:00,
2013-07-06 03:42:00,73.0,47.0,-100.00,NW,319,6.0,8.0,39,-99.99,,,-99.99,,2013-07-06 10:42:00,
2013-07-06 04:11:00,74.0,45.0,-100.00,NW,318,7.0,10.0,35,-99.99,,,-99.99,,2013-07-06 11:11:00,
2013-07-06 04:21:00,74.0,44.0,-100.00,NW,319,7.0,10.0,34,-99.99,,,-99.99,,2013-07-06 11:21:00,
2013-07-06 04:42:00,74.0,44.0,-100.00,NW,320,6.0,8.0,34,-99.99,,,-99.99,,2013-07-06 11:42:00,
2013-07-06 05:21:00,74.0,45.0,-100.00,NW,315,6.0,10.0,35,-99.99,,,-99.99,,2013-07-06 12:21:00,
2013-07-06 06:01:00,74.0,43.0,-100.00,NW,323,3.0,5.0,33,-99.99,,,-99.99,,2013-07-06 13:01:00,
2013-07-06 06:22:00,74.0,42.0,-100.00,NW,319,5.0,7.0,32,-99.99,,,-99.99,,2013-07-06 13:22:00,
2013-07-06 06:33:00,74.0,42.0,-100.00,NW,320,3.0,5.0,32,-99.99,,,-99.99,,2013-07-06 13:33:00,
2013-07-06 06:43:00,74.0,42.0,-100.00,NNW,331,4.0,7.0,32,-99.99,,,-99.99,,2013-07-06 13:43:00,
2013-07-06 06:52:00,74.0,43.0,-100.00,NW,317,3.0,5.0,33,-99.99,,,-99.99,,2013-07-06 13:52:00,
2013-07-06 07:11:00,73.0,44.0,-100.00,NW,304,3.0,5.0,35,-99.99,,,-99.99,,2013-07-06 14:11:00,
2013-07-06 07:34:00,74.0,44.0,-100.00,NW,305,3.0,5.0,34,-99.99,,,-99.99,,2013-07-06 14:34:00,
2013-07-06 07:42:00,75.0,44.0,-100.00,NNW,328,1.0,2.0,33,-99.99,,,-99.99,,2013-07-06 14:42:00,
2013-07-06 07:53:00,76.0,44.0,-100.00,NW,312,2.0,3.0,32,-99.99,,,-99.99,,2013-07-06 14:53:00,
2013-07-06 08:22:00,75.0,45.0,-100.00,NW,304,3.0,5.0,35,-99.99,,,-99.99,,2013-07-06 15:22:00,
2013-07-06 08:52:00,75.0,48.0,-100.00,West,271,2.0,4.0,38,-99.99,,,-99.99,,2013-07-06 15:52:00,
2013-07-06 09:22:00,76.0,47.0,-100.00,West,260,2.0,4.0,36,-99.99,,,-99.99,,2013-07-06 16:22:00,
2013-07-06 10:44:00,78.0,50.0,-100.00,West,263,6.0,9.0,37,-99.99,,,-99.99,,2013-07-06 17:44:00,
2013-07-06 11:14:00,78.0,50.0,-100.00,West,260,7.0,10.0,38,-99.99,,,-99.99,,2013-07-06 18:14:00,
2013-07-06 11:24:00,79.0,50.0,-100.00,WSW,254,6.0,10.0,36,-99.99,,,-99.99,,2013-07-06 18:24:00,
2013-07-06 11:45:00,80.0,50.0,-100.00,WSW,254,7.0,11.0,35,-99.99,,,-99.99,,2013-07-06 18:45:00,
2013-07-06 11:55:00,80.0,49.0,-100.00,West,264,7.0,12.0,34,-99.99,,,-99.99,,2013-07-06 18:55:00,
2013-07-06 12:13:00,78.0,49.0,-100.00,West,269,7.0,12.0,36,-99.99,,,-99.99,,2013-07-06 19:13:00,
2013-07-06 12:24:00,78.0,49.0,-100.00,West,263,7.0,13.0,36,-99.99,,,-99.99,,2013-07-06 19:24:00,
2013-07-06 12:54:00,79.0,48.0,-100.00,West,259,8.0,13.0,34,-99.99,,,-99.99,,2013-07-06 19:54:00,
2013-07-06 13:13:00,80.0,49.0,-100.00,West,261,8.0,16.0,34,-99.99,,,-99.99,,2013-07-06 20:13:00,
2013-07-06 13:25:00,79.0,47.0,-100.00,WSW,250,9.0,17.0,33,-99.99,,,-99.99,,2013-07-06 20:25:00,
2013-07-06 13:55:00,78.0,50.0,-100.00,WSW,248,9.0,15.0,37,-99.99,,,-99.99,,2013-07-06 20:55:00,
2013-07-06 14:14:00,79.0,49.0,-100.00,West,273,8.0,15.0,35,-99.99,,,-99.99,,2013-07-06 21:14:00,
2013-07-06 14:24:00,80.0,49.0,-100.00,West,261,8.0,16.0,34,-99.99,,,-99.99,,2013-07-06 21:24:00,
2013-07-06 14:55:00,79.0,50.0,-100.00,West,265,7.0,12.0,37,-99.99,,,-99.99,,2013-07-06 21:55:00,
2013-07-06 15:13:00,79.0,48.0,-100.00,WSW,258,8.0,14.0,34,-99.99,,,-99.99,,2013-07-06 22:13:00,
2013-07-06 15:24:00,80.0,49.0,-100.00,West,266,8.0,13.0,34,-99.99,,,-99.99,,2013-07-06 22:24:00,
2013-07-06 16:13:00,78.0,53.0,-100.00,WSW,258,8.0,15.0,42,-99.99,,,-99.99,,2013-07-06 23:13:00,
2013-07-06 16:23:00,78.0,53.0,-100.00,WSW,255,8.0,15.0,42,-99.99,,,-99.99,,2013-07-06 23:23:00,
2013-07-06 16:36:00,77.0,53.0,-100.00,West,260,9.0,16.0,44,-99.99,,,-99.99,,2013-07-06 23:36:00,
2013-07-06 17:03:00,77.0,54.0,-100.00,WSW,255,9.0,14.0,45,-99.99,,,-99.99,,2013-07-07 00:03:00,
2013-07-06 17:35:00,78.0,55.0,-100.00,West,261,7.0,12.0,45,-99.99,,,-99.99,,2013-07-07 00:35:00,
2013-07-06 17:55:00,77.0,56.0,-100.00,WSW,258,8.0,13.0,48,-99.99,,,-99.99,,2013-07-07 00:55:00,
2013-07-06 18:33:00,76.0,54.0,-100.00,WSW,254,8.0,11.0,46,-99.99,,,-99.99,,2013-07-07 01:33:00,
2013-07-06 18:43:00,75.0,53.0,-100.00,West,262,7.0,12.0,47,-99.99,,,-99.99,,2013-07-07 01:43:00,
2013-07-06 18:54:00,74.0,54.0,-100.00,West,263,7.0,10.0,49,-99.99,,,-99.99,,2013-07-07 01:54:00,
2013-07-06 19:02:00,74.0,55.0,-100.00,West,270,6.0,9.0,51,-99.99,,,-99.99,,2013-07-07 02:02:00,
2013-07-06 19:12:00,74.0,55.0,-100.00,West,266,5.0,9.0,52,-99.99,,,-99.99,,2013-07-07 02:12:00,
2013-07-06 19:22:00,74.0,54.0,-100.00,West,259,5.0,8.0,49,-99.99,,,-99.99,,2013-07-07 02:22:00,
2013-07-06 20:02:00,74.0,49.0,-100.00,West,279,4.0,5.0,41,-99.99,,,-99.99,,2013-07-07 03:02:00,
2013-07-06 21:11:00,73.0,47.0,-100.00,WNW,301,3.0,5.0,40,-99.99,,,-99.99,,2013-07-07 04:11:00,
2013-07-06 21:21:00,73.0,48.0,-100.00,WNW,302,3.0,4.0,41,-99.99,,,-99.99,,2013-07-07 04:21:00,
2013-07-06 21:41:00,73.0,49.0,-100.00,NW,311,3.0,5.0,43,-99.99,,,-99.99,,2013-07-07 04:41:00,
2013-07-06 21:51:00,73.0,49.0,-100.00,NW,313,4.0,5.0,43,-99.99,,,-99.99,,2013-07-07 04:51:00,
2013-07-06 22:01:00,74.0,49.0,-100.00,NW,321,4.0,4.0,42,-99.99,,,-99.99,,2013-07-07 05:01:00,
2013-07-06 22:11:00,75.0,50.0,-100.00,NW,315,4.0,6.0,41,-99.99,,,-99.99,,2013-07-07 05:11:00,
2013-07-06 22:21:00,75.0,49.0,-100.00,NW,319,4.0,6.0,40,-99.99,,,-99.99,,2013-07-07 05:21:00,
2013-07-06 22:31:00,75.0,48.0,-100.00,NW,317,4.0,5.0,39,-99.99,,,-99.99,,2013-07-07 05:31:00,
2013-07-06 22:41:00,75.0,48.0,-100.00,NW,321,4.0,5.0,38,-99.99,,,-99.99,,2013-07-07 05:41:00,
2013-07-06 22:51:00,75.0,46.0,-100.00,NW,316,5.0,7.0,36,-99.99,,,-99.99,,2013-07-07 05:51:00,
2013-07-06 23:01:00,74.0,46.0,-100.00,NW,310,6.0,7.0,37,-99.99,,,-99.99,,2013-07-07 06:01:00,
2013-07-06 23:11:00,74.0,48.0,-100.00,NW,316,6.0,7.0,40,-99.99,,,-99.99,,2013-07-07 06:11:00,
2013-07-06 23:21:00,74.0,48.0,-100.00,NW,310,5.0,7.0,40,-99.99,,,-99.99,,2013-07-07 06:21:00,
2013-07-06 23:43:00,74.0,51.0,-100.00,NW,318,5.0,6.0,44,-99.99,,,-99.99,,2013-07-07 06:43:00,
2013-07-06 23:52:00,74.0,51.0,-100.00,NNW,329,5.0,6.0,44,-99.99,,,-99.99,,2013-07-07 06:52:00,